AMX679 MGGT-MMMX

Flight info

Callsign AMX679
Flight time N/A
Altitude 38000
Route OMISO3A OMISO UA552 MTT UT112 LARLO LARLO3B
Aircraft B38M/M-SDE1FGHILORVWXY/HB1

Departure

Time 2026-05-08 12:18
Airport La Aurora International Airport (MGGT)

Arrival

Time N/A
Airport Mexico City Benito Juárez International Airport (MMMX)
Time Latitude Longitude Altitude Speed Heading
2026-05-08 12:03 14.59009 -90.52849 4931 ft 0 kts 287°
2026-05-08 12:06 14.59007 -90.52844 4931 ft 2 kts 286°
2026-05-08 12:06 14.59003 -90.52829 4932 ft 2 kts 287°
2026-05-08 12:06 14.58998 -90.52814 4932 ft 2 kts 287°
2026-05-08 12:07 14.58994 -90.52800 4932 ft 2 kts 285°
2026-05-08 12:07 14.58990 -90.52786 4932 ft 2 kts 283°
2026-05-08 12:07 14.58987 -90.52771 4931 ft 2 kts 276°
2026-05-08 12:07 14.58987 -90.52756 4931 ft 2 kts 229°
2026-05-08 12:08 14.58994 -90.52751 4931 ft 1 kts 197°
2026-05-08 12:10 14.58993 -90.52751 4929 ft 0 kts 196°
2026-05-08 12:10 14.58988 -90.52753 4929 ft 1 kts 196°
2026-05-08 12:10 14.58976 -90.52756 4930 ft 2 kts 196°
2026-05-08 12:10 14.58958 -90.52761 4931 ft 3 kts 196°
2026-05-08 12:11 14.58930 -90.52770 4931 ft 5 kts 196°
2026-05-08 12:11 14.58886 -90.52782 4931 ft 7 kts 193°
2026-05-08 12:11 14.58833 -90.52769 4931 ft 9 kts 148°
2026-05-08 12:11 14.58790 -90.52719 4930 ft 10 kts 115°
2026-05-08 12:12 14.58768 -90.52682 4929 ft 2 kts 158°
2026-05-08 12:12 14.58749 -90.52684 4929 ft 5 kts 190°
2026-05-08 12:12 14.58695 -90.52700 4928 ft 11 kts 197°
2026-05-08 12:12 14.58604 -90.52729 4923 ft 16 kts 198°
2026-05-08 12:13 14.58486 -90.52768 4921 ft 19 kts 197°
2026-05-08 12:13 14.58361 -90.52807 4921 ft 20 kts 197°
2026-05-08 12:13 14.58223 -90.52852 4915 ft 22 kts 197°
2026-05-08 12:13 14.58071 -90.52902 4914 ft 24 kts 198°
2026-05-08 12:14 14.57905 -90.52956 4899 ft 27 kts 197°
2026-05-08 12:14 14.57717 -90.53017 4897 ft 29 kts 197°
2026-05-08 12:14 14.57518 -90.53081 4888 ft 29 kts 197°
2026-05-08 12:14 14.57388 -90.53123 4883 ft 17 kts 197°
2026-05-08 12:15 14.57278 -90.53158 4884 ft 16 kts 197°
2026-05-08 12:15 14.57170 -90.53194 4885 ft 16 kts 197°
2026-05-08 12:15 14.57078 -90.53201 4885 ft 7 kts 143°
2026-05-08 12:15 14.57071 -90.53183 4881 ft 2 kts 99°
2026-05-08 12:16 14.57070 -90.53171 4884 ft 2 kts 88°
2026-05-08 12:16 14.57080 -90.53154 4881 ft 2 kts 41°
2026-05-08 12:16 14.57104 -90.53144 4885 ft 6 kts 19°
2026-05-08 12:16 14.57139 -90.53132 4882 ft 0 kts 17°
2026-05-08 12:17 14.57311 -90.53077 4883 ft 60 kts 17°
2026-05-08 12:17 14.57916 -90.52883 4902 ft 120 kts 18°
2026-05-08 12:17 14.58873 -90.52571 4992 ft 162 kts 17°
2026-05-08 12:18 14.60000 -90.52211 5538 ft 171 kts 17°
2026-05-08 12:18 14.61163 -90.51867 5972 ft 178 kts 13°
2026-05-08 12:18 14.62378 -90.51540 6311 ft 183 kts 15°
2026-05-08 12:18 14.63629 -90.51168 6548 ft 191 kts 16°
2026-05-08 12:19 14.64945 -90.50766 6712 ft 203 kts 16°
2026-05-08 12:19 14.66349 -90.50338 6845 ft 218 kts 16°
2026-05-08 12:19 14.67852 -90.49881 6942 ft 234 kts 16°
2026-05-08 12:19 14.69485 -90.49385 7188 ft 255 kts 16°
2026-05-08 12:20 14.71230 -90.48854 7520 ft 273 kts 16°
2026-05-08 12:20 14.73091 -90.48292 8069 ft 283 kts 14°
2026-05-08 12:20 14.75056 -90.48147 8712 ft 287 kts 348°
2026-05-08 12:20 14.76884 -90.48949 9384 ft 290 kts 321°
2026-05-08 12:21 14.78165 -90.50550 10066 ft 292 kts 294°
2026-05-08 12:21 14.78748 -90.52574 10538 ft 302 kts 282°
2026-05-08 12:21 14.79183 -90.54765 10866 ft 318 kts 281°
2026-05-08 12:21 14.79597 -90.57041 11271 ft 329 kts 280°
2026-05-08 12:22 14.80016 -90.59389 11796 ft 335 kts 280°
2026-05-08 12:22 14.80402 -90.61788 12360 ft 340 kts 274°
2026-05-08 12:22 14.80250 -90.64229 12932 ft 344 kts 255°
2026-05-08 12:22 14.79142 -90.66410 13530 ft 347 kts 229°
2026-05-08 12:23 14.77412 -90.68178 14116 ft 351 kts 223°
2026-05-08 12:23 14.75923 -90.70163 14682 ft 353 kts 245°
2026-05-08 12:23 14.75276 -90.72619 15253 ft 356 kts 267°
2026-05-08 12:23 14.75578 -90.75152 15818 ft 359 kts 289°
2026-05-08 12:24 14.76785 -90.77416 16382 ft 362 kts 307°
2026-05-08 12:24 14.78361 -90.79462 16874 ft 366 kts 310°
2026-05-08 12:24 14.80019 -90.81442 17369 ft 370 kts 311°
2026-05-08 12:24 14.81708 -90.83464 17863 ft 373 kts 310°
2026-05-08 12:25 14.83373 -90.85537 18356 ft 376 kts 309°
2026-05-08 12:25 14.85045 -90.87631 18846 ft 379 kts 309°
2026-05-08 12:25 14.86742 -90.89723 19320 ft 382 kts 310°
2026-05-08 12:25 14.88464 -90.91833 19801 ft 385 kts 310°
2026-05-08 12:26 14.90192 -90.93965 20282 ft 387 kts 309°
2026-05-08 12:26 14.91925 -90.96112 20762 ft 390 kts 309°
2026-05-08 12:26 14.93671 -90.98273 21222 ft 393 kts 310°
2026-05-08 12:26 14.94837 -90.99711 21513 ft 395 kts 310°
2026-05-08 12:27 14.96611 -91.01901 21933 ft 398 kts 309°
2026-05-08 12:27 14.98976 -91.04827 22473 ft 402 kts 309°
2026-05-08 12:27 15.00190 -91.06329 22744 ft 404 kts 309°
2026-05-08 12:27 15.01979 -91.08542 23142 ft 406 kts 309°
2026-05-08 12:28 15.03799 -91.10793 23522 ft 409 kts 309°
2026-05-08 12:28 15.05630 -91.13059 23909 ft 412 kts 309°
2026-05-08 12:28 15.07474 -91.15344 24276 ft 415 kts 309°
2026-05-08 12:28 15.09328 -91.17639 24637 ft 417 kts 309°
2026-05-08 12:29 15.11191 -91.19948 25007 ft 420 kts 309°
2026-05-08 12:29 15.13070 -91.22276 25385 ft 422 kts 309°
2026-05-08 12:29 15.14954 -91.24612 25759 ft 424 kts 309°
2026-05-08 12:29 15.16851 -91.26965 26128 ft 426 kts 309°
2026-05-08 12:30 15.18757 -91.29329 26483 ft 428 kts 309°
2026-05-08 12:30 15.20666 -91.31697 26832 ft 430 kts 309°
2026-05-08 12:30 15.22595 -91.34092 27173 ft 433 kts 309°
2026-05-08 12:30 15.24527 -91.36491 27505 ft 435 kts 309°
2026-05-08 12:31 15.26447 -91.38875 27816 ft 437 kts 309°
2026-05-08 12:31 15.28394 -91.41295 28125 ft 439 kts 309°
2026-05-08 12:31 15.30364 -91.43743 28412 ft 442 kts 309°
2026-05-08 12:31 15.32338 -91.46197 28718 ft 444 kts 309°
2026-05-08 12:32 15.34322 -91.48665 29007 ft 446 kts 309°
2026-05-08 12:32 15.36310 -91.51142 29297 ft 448 kts 309°
2026-05-08 12:32 15.38313 -91.53637 29585 ft 451 kts 309°
2026-05-08 12:32 15.40323 -91.56140 29856 ft 453 kts 309°
2026-05-08 12:33 15.42345 -91.58660 30100 ft 455 kts 309°
2026-05-08 12:33 15.44376 -91.61192 30336 ft 458 kts 309°
2026-05-08 12:33 15.46419 -91.63740 30554 ft 461 kts 309°
2026-05-08 12:33 15.48475 -91.66303 30798 ft 463 kts 309°
2026-05-08 12:34 15.50537 -91.68877 31059 ft 465 kts 309°
2026-05-08 12:34 15.52581 -91.71428 31321 ft 466 kts 309°
2026-05-08 12:34 15.54657 -91.74021 31594 ft 468 kts 309°
2026-05-08 12:34 15.56739 -91.76622 31870 ft 469 kts 309°
2026-05-08 12:35 15.58828 -91.79232 32160 ft 470 kts 309°
2026-05-08 12:35 15.60923 -91.81851 32433 ft 472 kts 309°
2026-05-08 12:35 15.63027 -91.84482 32700 ft 473 kts 309°
2026-05-08 12:35 15.65131 -91.87114 33007 ft 474 kts 309°
2026-05-08 12:36 15.67231 -91.89741 33432 ft 471 kts 309°
2026-05-08 12:36 15.69317 -91.92353 33824 ft 469 kts 309°
2026-05-08 12:36 15.71396 -91.94956 34194 ft 468 kts 309°
2026-05-08 12:36 15.73467 -91.97551 34546 ft 466 kts 309°
2026-05-08 12:37 15.75533 -92.00139 34890 ft 465 kts 309°
2026-05-08 12:37 15.77597 -92.02725 35220 ft 464 kts 309°
2026-05-08 12:37 15.79656 -92.05305 35532 ft 463 kts 309°
2026-05-08 12:37 15.81709 -92.07881 35826 ft 462 kts 309°
2026-05-08 12:38 15.83757 -92.10449 36107 ft 462 kts 309°
2026-05-08 12:38 15.85806 -92.13021 36349 ft 462 kts 309°
2026-05-08 12:38 15.87830 -92.15562 36584 ft 462 kts 309°
2026-05-08 12:38 15.89883 -92.18140 36813 ft 462 kts 309°
2026-05-08 12:39 15.91935 -92.20718 37055 ft 463 kts 309°
2026-05-08 12:39 15.93987 -92.23296 37278 ft 463 kts 309°
2026-05-08 12:39 15.96039 -92.25877 37496 ft 463 kts 309°
2026-05-08 12:39 15.98089 -92.28455 37706 ft 463 kts 309°
2026-05-08 12:40 16.00142 -92.31037 37849 ft 461 kts 309°
2026-05-08 12:40 16.02177 -92.33598 37843 ft 457 kts 309°
2026-05-08 12:40 16.06209 -92.38675 37843 ft 453 kts 309°
2026-05-08 12:41 16.10185 -92.43685 37846 ft 451 kts 309°
2026-05-08 12:41 16.14180 -92.48722 37846 ft 452 kts 309°
2026-05-08 12:42 16.18184 -92.53774 37846 ft 452 kts 309°
2026-05-08 12:42 16.22186 -92.58827 37845 ft 452 kts 309°
2026-05-08 12:43 16.26191 -92.63888 37845 ft 452 kts 309°
2026-05-08 12:43 16.30192 -92.68947 37847 ft 453 kts 309°
2026-05-08 12:44 16.34162 -92.73971 37847 ft 452 kts 309°
2026-05-08 12:44 16.38167 -92.79041 37848 ft 453 kts 309°
2026-05-08 12:45 16.42168 -92.84111 37849 ft 452 kts 309°
2026-05-08 12:45 16.46164 -92.89177 37849 ft 452 kts 309°
2026-05-08 12:46 16.50155 -92.94241 37849 ft 452 kts 309°
2026-05-08 12:46 16.54145 -92.99307 37851 ft 451 kts 309°
2026-05-08 12:47 16.58227 -93.04204 37880 ft 450 kts 316°
2026-05-08 12:47 16.60497 -93.06465 38001 ft 451 kts 316°
2026-05-08 12:47 16.62773 -93.08715 38000 ft 451 kts 316°
2026-05-08 12:48 16.67296 -93.13261 37999 ft 452 kts 316°
2026-05-08 12:48 16.71843 -93.17812 37999 ft 452 kts 316°
2026-05-08 12:49 16.76384 -93.22366 37998 ft 453 kts 316°
2026-05-08 12:49 16.80935 -93.26935 37998 ft 454 kts 316°
2026-05-08 12:50 16.85494 -93.31512 37999 ft 456 kts 316°
2026-05-08 12:50 16.90064 -93.36107 38001 ft 455 kts 316°
2026-05-08 12:51 16.96857 -93.42946 38003 ft 452 kts 316°
2026-05-08 12:52 17.01376 -93.47498 38000 ft 450 kts 316°
2026-05-08 12:52 17.08152 -93.54331 37997 ft 451 kts 316°
2026-05-08 12:53 17.12671 -93.58891 37999 ft 449 kts 316°
2026-05-08 12:53 17.17138 -93.63402 37998 ft 448 kts 316°
2026-05-08 12:54 17.21623 -93.67936 37997 ft 448 kts 316°
2026-05-08 12:54 17.26115 -93.72480 37997 ft 451 kts 316°
2026-05-08 12:55 17.30614 -93.77032 37999 ft 449 kts 316°
2026-05-08 12:55 17.35107 -93.81583 37999 ft 449 kts 316°
2026-05-08 12:56 17.39586 -93.86124 37999 ft 448 kts 316°
2026-05-08 12:56 17.44065 -93.90666 38000 ft 448 kts 315°
2026-05-08 12:57 17.48541 -93.95210 38000 ft 448 kts 315°
2026-05-08 12:57 17.53016 -93.99756 38000 ft 448 kts 315°
2026-05-08 12:58 17.57483 -94.04297 38001 ft 448 kts 315°
2026-05-08 12:58 17.61926 -94.08817 38001 ft 448 kts 315°
2026-05-08 12:59 17.66399 -94.13370 38002 ft 448 kts 315°
2026-05-08 12:59 17.70868 -94.17922 38002 ft 448 kts 315°
2026-05-08 13:00 17.75339 -94.22480 38003 ft 448 kts 315°
2026-05-08 13:00 17.79803 -94.27034 38003 ft 448 kts 315°
2026-05-08 13:01 17.84244 -94.31569 38003 ft 448 kts 315°
2026-05-08 13:01 17.88709 -94.36131 38004 ft 448 kts 315°
2026-05-08 13:02 17.93174 -94.40697 38004 ft 448 kts 315°
2026-05-08 13:02 17.97637 -94.45263 38005 ft 448 kts 315°
2026-05-08 13:03 18.02105 -94.49839 38005 ft 448 kts 315°
2026-05-08 13:03 18.06536 -94.54380 38006 ft 448 kts 315°
2026-05-08 13:04 18.10484 -94.59385 38054 ft 448 kts 290°
2026-05-08 13:04 18.11265 -94.62540 38032 ft 448 kts 279°
2026-05-08 13:04 18.11701 -94.65776 38009 ft 447 kts 276°
2026-05-08 13:05 18.12584 -94.72259 38012 ft 447 kts 281°
2026-05-08 13:05 18.13800 -94.78677 38006 ft 448 kts 279°
2026-05-08 13:06 18.14806 -94.85097 38009 ft 448 kts 280°
2026-05-08 13:06 18.15933 -94.91551 38007 ft 449 kts 280°
2026-05-08 13:07 18.17002 -94.98039 38009 ft 450 kts 280°
2026-05-08 13:07 18.18096 -95.04513 38011 ft 449 kts 280°
2026-05-08 13:08 18.19176 -95.10995 38011 ft 449 kts 280°
2026-05-08 13:08 18.20255 -95.17459 38008 ft 448 kts 280°
2026-05-08 13:09 18.21330 -95.23915 38008 ft 448 kts 280°
2026-05-08 13:09 18.22395 -95.30332 38008 ft 448 kts 280°
2026-05-08 13:10 18.23465 -95.36783 38005 ft 445 kts 279°
2026-05-08 13:10 18.24511 -95.43104 37998 ft 441 kts 279°
2026-05-08 13:11 18.25573 -95.49532 38010 ft 447 kts 279°
2026-05-08 13:11 18.26638 -95.55989 38012 ft 448 kts 279°
2026-05-08 13:12 18.27701 -95.62448 38010 ft 448 kts 279°
2026-05-08 13:12 18.28755 -95.68872 38009 ft 448 kts 279°
2026-05-08 13:13 18.29814 -95.75338 38009 ft 448 kts 279°
2026-05-08 13:13 18.30870 -95.81798 38009 ft 448 kts 279°
2026-05-08 13:14 18.31924 -95.88260 38010 ft 448 kts 279°
2026-05-08 13:14 18.32977 -95.94730 38010 ft 448 kts 279°
2026-05-08 13:15 18.33850 -96.00108 38011 ft 448 kts 279°
2026-05-08 13:15 18.34898 -96.06576 38011 ft 448 kts 279°
2026-05-08 13:16 18.35944 -96.13050 38011 ft 448 kts 279°
2026-05-08 13:16 18.36987 -96.19514 38012 ft 448 kts 279°
2026-05-08 13:17 18.38030 -96.25993 38008 ft 448 kts 279°
2026-05-08 13:17 18.39071 -96.32474 38011 ft 451 kts 279°
2026-05-08 13:18 18.40108 -96.38944 38004 ft 449 kts 279°
2026-05-08 13:18 18.41142 -96.45415 37998 ft 447 kts 279°
2026-05-08 13:19 18.42172 -96.51870 37996 ft 447 kts 279°
2026-05-08 13:19 18.43200 -96.58330 37994 ft 449 kts 279°
2026-05-08 13:20 18.44230 -96.64813 37995 ft 447 kts 279°
2026-05-08 13:20 18.45256 -96.71287 37996 ft 448 kts 279°
2026-05-08 13:21 18.46277 -96.77747 37996 ft 447 kts 279°
2026-05-08 13:21 18.47298 -96.84218 37995 ft 450 kts 279°
2026-05-08 13:22 18.48322 -96.90727 37996 ft 449 kts 279°
2026-05-08 13:22 18.49352 -96.97285 37994 ft 457 kts 279°
2026-05-08 13:23 18.50393 -97.03932 37997 ft 462 kts 279°
2026-05-08 13:23 18.51439 -97.10623 37999 ft 463 kts 279°
2026-05-08 13:24 18.52483 -97.17320 38000 ft 464 kts 279°
2026-05-08 13:24 18.53530 -97.24053 38003 ft 465 kts 279°
2026-05-08 13:25 18.54568 -97.30741 38007 ft 464 kts 279°
2026-05-08 13:25 18.55607 -97.37452 38006 ft 464 kts 279°
2026-05-08 13:26 18.56643 -97.44164 38008 ft 462 kts 279°
2026-05-08 13:26 18.57672 -97.50839 38008 ft 461 kts 279°
2026-05-08 13:27 18.58695 -97.57502 38006 ft 460 kts 279°
2026-05-08 13:27 18.59718 -97.64170 38004 ft 460 kts 279°
2026-05-08 13:28 18.60837 -97.70823 37943 ft 459 kts 281°
2026-05-08 13:28 18.61407 -97.74126 37500 ft 460 kts 279°
2026-05-08 13:28 18.61961 -97.77460 36908 ft 461 kts 280°
2026-05-08 13:29 18.62539 -97.80745 36338 ft 461 kts 281°
2026-05-08 13:29 18.63142 -97.84073 35740 ft 461 kts 281°
2026-05-08 13:29 18.63729 -97.87392 35133 ft 461 kts 280°
2026-05-08 13:29 18.64302 -97.90718 34539 ft 460 kts 280°
2026-05-08 13:30 18.64879 -97.94038 33935 ft 460 kts 280°
2026-05-08 13:30 18.65463 -97.97346 33341 ft 458 kts 280°
2026-05-08 13:30 18.66043 -98.00650 32745 ft 457 kts 280°
2026-05-08 13:30 18.66614 -98.03935 32160 ft 455 kts 280°
2026-05-08 13:31 18.67183 -98.07216 31559 ft 453 kts 280°
2026-05-08 13:31 18.67752 -98.10479 30976 ft 451 kts 280°
2026-05-08 13:31 18.68318 -98.13725 30394 ft 449 kts 280°
2026-05-08 13:31 18.68878 -98.16948 29812 ft 446 kts 280°
2026-05-08 13:32 18.69434 -98.20162 29237 ft 443 kts 280°
2026-05-08 13:32 18.69987 -98.23354 28664 ft 440 kts 280°
2026-05-08 13:32 18.70536 -98.26521 28098 ft 438 kts 280°
2026-05-08 13:32 18.71084 -98.29669 27501 ft 435 kts 282°
2026-05-08 13:33 18.72212 -98.32590 27084 ft 429 kts 305°
2026-05-08 13:33 18.74286 -98.34758 26970 ft 416 kts 328°
2026-05-08 13:33 18.76920 -98.35885 26750 ft 407 kts 351°
2026-05-08 13:33 18.79717 -98.35935 26419 ft 401 kts
2026-05-08 13:34 18.82461 -98.35491 26039 ft 397 kts 10°
2026-05-08 13:34 18.85167 -98.34985 25632 ft 393 kts
2026-05-08 13:34 18.87873 -98.34620 25220 ft 391 kts
2026-05-08 13:34 18.90569 -98.34599 24810 ft 388 kts 355°
2026-05-08 13:35 18.93248 -98.34900 24396 ft 385 kts 352°
2026-05-08 13:35 18.95890 -98.35300 23980 ft 382 kts 352°
2026-05-08 13:35 18.98527 -98.35588 23558 ft 380 kts 356°
2026-05-08 13:35 19.01128 -98.35742 23092 ft 372 kts 356°
2026-05-08 13:36 19.03710 -98.35921 21738 ft 372 kts 354°
2026-05-08 13:36 19.06176 -98.36162 21717 ft 347 kts 354°
2026-05-08 13:36 19.08590 -98.36387 21488 ft 349 kts 355°
2026-05-08 13:36 19.11023 -98.36585 21152 ft 349 kts 355°
2026-05-08 13:37 19.13426 -98.36782 20796 ft 347 kts 355°
2026-05-08 13:37 19.15831 -98.36996 20437 ft 344 kts 353°
2026-05-08 13:37 19.18176 -98.37385 20095 ft 342 kts 351°
2026-05-08 13:37 19.20539 -98.37741 19730 ft 340 kts 352°
2026-05-08 13:38 19.22863 -98.38082 19384 ft 339 kts 351°
2026-05-08 13:38 19.25206 -98.38458 19034 ft 336 kts 351°
2026-05-08 13:38 19.27503 -98.38836 18685 ft 336 kts 351°
2026-05-08 13:38 19.29815 -98.39206 18332 ft 331 kts 351°
2026-05-08 13:39 19.32091 -98.39564 18002 ft 334 kts 351°
2026-05-08 13:39 19.34376 -98.39927 17642 ft 327 kts 351°
2026-05-08 13:39 19.36634 -98.40289 17319 ft 332 kts 351°
2026-05-08 13:39 19.38897 -98.40650 16960 ft 324 kts 351°
2026-05-08 13:40 19.41116 -98.41004 16644 ft 330 kts 351°
2026-05-08 13:40 19.43367 -98.41363 16154 ft 328 kts 351°
2026-05-08 13:40 19.45650 -98.41729 15692 ft 333 kts 351°
2026-05-08 13:40 19.47936 -98.42095 15317 ft 332 kts 351°
2026-05-08 13:41 19.50215 -98.42459 14957 ft 330 kts 351°
2026-05-08 13:41 19.52474 -98.42819 14689 ft 325 kts 351°
2026-05-08 13:41 19.54666 -98.43169 14676 ft 313 kts 351°
2026-05-08 13:41 19.56777 -98.43507 14665 ft 301 kts 351°
2026-05-08 13:42 19.58834 -98.43836 14673 ft 298 kts 351°
2026-05-08 13:42 19.60883 -98.44187 14666 ft 297 kts 345°
2026-05-08 13:42 19.62877 -98.44747 14673 ft 296 kts 345°
2026-05-08 13:42 19.64877 -98.45268 14668 ft 296 kts 346°
2026-05-08 13:43 19.66877 -98.45794 14669 ft 296 kts 345°
2026-05-08 13:43 19.68873 -98.46339 14667 ft 296 kts 345°
2026-05-08 13:43 19.70841 -98.46878 14671 ft 296 kts 345°
2026-05-08 13:43 19.72832 -98.47426 14669 ft 295 kts 342°
2026-05-08 13:44 19.74635 -98.48408 14699 ft 294 kts 323°
2026-05-08 13:44 19.76282 -98.49717 14685 ft 295 kts 322°
2026-05-08 13:44 19.77901 -98.51060 14682 ft 295 kts 322°
2026-05-08 13:44 19.79532 -98.52391 14687 ft 296 kts 322°
2026-05-08 13:45 19.81174 -98.53708 14684 ft 295 kts 322°
2026-05-08 13:45 19.82812 -98.55026 14686 ft 296 kts 322°
2026-05-08 13:45 19.84340 -98.56453 14695 ft 295 kts 306°
2026-05-08 13:45 19.85349 -98.58331 14683 ft 290 kts 284°
2026-05-08 13:46 19.85397 -98.60388 14739 ft 272 kts 253°
2026-05-08 13:46 19.84425 -98.61969 14698 ft 248 kts 216°
2026-05-08 13:46 19.82865 -98.62663 14693 ft 246 kts 195°
2026-05-08 13:46 19.81228 -98.63148 14689 ft 243 kts 198°
2026-05-08 13:47 19.79657 -98.63808 14683 ft 242 kts 208°
2026-05-08 13:47 19.78255 -98.64789 14690 ft 241 kts 220°
2026-05-08 13:47 19.77016 -98.65986 14653 ft 242 kts 224°
2026-05-08 13:47 19.75770 -98.67200 14478 ft 241 kts 221°
2026-05-08 13:48 19.74497 -98.68357 14276 ft 241 kts 220°
2026-05-08 13:48 19.73218 -98.69502 14060 ft 240 kts 220°
2026-05-08 13:48 19.71958 -98.70646 13844 ft 239 kts 221°
2026-05-08 13:48 19.70692 -98.71801 13624 ft 238 kts 221°
2026-05-08 13:49 19.69437 -98.72944 13409 ft 237 kts 221°
2026-05-08 13:49 19.68186 -98.74081 13194 ft 236 kts 221°
2026-05-08 13:49 19.66955 -98.75199 12981 ft 235 kts 221°
2026-05-08 13:49 19.65713 -98.76329 12755 ft 235 kts 221°
2026-05-08 13:50 19.64475 -98.77454 12553 ft 234 kts 221°
2026-05-08 13:50 19.63250 -98.78566 12344 ft 233 kts 221°
2026-05-08 13:50 19.62011 -98.79692 12131 ft 232 kts 221°
2026-05-08 13:50 19.60787 -98.80804 11922 ft 232 kts 221°
2026-05-08 13:51 19.59568 -98.81910 11702 ft 231 kts 221°
2026-05-08 13:51 19.58349 -98.83017 11508 ft 229 kts 221°
2026-05-08 13:51 19.57141 -98.84114 11391 ft 228 kts 221°
2026-05-08 13:51 19.55943 -98.85212 11271 ft 227 kts 224°
2026-05-08 13:52 19.55018 -98.86512 10976 ft 217 kts 239°
2026-05-08 13:52 19.54296 -98.87840 10663 ft 200 kts 240°
2026-05-08 13:52 19.53609 -98.89105 10415 ft 196 kts 240°
2026-05-08 13:52 19.52923 -98.90334 10166 ft 193 kts 239°
2026-05-08 13:53 19.52243 -98.91547 9907 ft 193 kts 239°